Theta_e
314 315 317 317 318 320 321 322 321 318 313 312 312 312 312 312 311 311 312 310 310 310 312 312 312 314 315 317 317 319 323 325 323 321 320 320 320 318 318 318 318 321 319 324 334
315 315 316 317 318 319 319 320 320 320 315 313 313 313 313 314 314 314 315 311 309 309 311 313 313 314 316 317 318 320 322 324 322 320 319 320 319 318 318 318 318 319 322 329 335
315 315 317 316 317 318 319 319 319 320 314 314 315 314 314 312 314 311 310 311 310 310 311 312 313 315 317 318 318 319 322 321 319 318 319 320 319 318 318 318 319 319 320 330 334
315 316 317 317 317 317 319 319 319 317 316 315 313 314 314 312 315 311 311 310 310 310 311 311 313 315 316 317 317 318 316 318 317 315 317 319 319 318 318 318 317 319 320 328 333
315 316 316 316 317 317 318 318 317 314 313 313 313 312 312 314 312 311 312 310 309 312 311 312 313 316 315 316 315 318 315 314 315 315 317 316 318 318 318 318 315 315 318 325 329
315 315 316 316 316 317 317 317 315 313 312 311 311 309 316 312 310 310 313 313 312 310 311 313 313 315 314 315 315 316 314 314 313 314 314 317 316 314 317 316 315 315 317 320 325
315 315 315 315 316 317 317 316 314 312 311 309 309 312 311 312 310 312 313 313 311 311 312 311 312 314 314 314 312 314 315 314 314 314 314 314 315 315 316 313 313 313 314 317 319
314 315 315 315 316 316 316 315 313 311 310 308 308 314 310 310 310 311 312 311 311 310 311 311 311 314 315 313 313 314 315 316 314 314 314 314 318 318 314 313 314 314 313 314 316
314 314 314 314 315 315 315 313 311 310 309 309 312 313 309 310 311 310 311 312 311 311 311 311 313 314 313 314 314 314 313 315 312 313 314 314 316 315 312 313 313 314 314 314 313
315 314 314 315 315 315 313 311 310 310 313 313 311 312 309 311 312 310 310 312 312 313 313 313 314 314 315 315 314 313 313 314 314 313 313 315 315 314 313 313 314 315 314 314 314
315 313 313 314 314 314 312 312 313 313 312 309 310 309 309 311 310 311 310 311 313 313 312 314 313 314 314 314 313 314 313 313 313 312 314 314 315 314 315 314 314 315 316 315 315
314 313 313 314 314 312 312 310 310 310 312 309 309 310 312 311 311 311 310 312 313 313 313 313 313 313 312 311 312 314 313 313 312 312 314 315 315 314 314 315 315 315 315 316 316
313 313 314 314 313 312 312 310 309 309 309 309 309 311 312 312 312 311 311 312 312 312 313 311 312 311 312 310 311 312 312 313 313 312 312 312 313 313 314 314 314 314 314 315 314
313 313 313 313 312 312 311 309 308 309 309 309 309 310 312 311 312 310 310 311 311 312 312 312 308 311 312 311 311 311 311 312 312 313 312 312 311 315 314 313 311 311 312 312 312
313 313 313 312 311 312 310 310 313 307 310 310 309 308 312 310 311 311 309 310 312 312 311 311 310 311 312 311 311 311 311 312 313 313 314 312 311 312 311 312 312 312 313 313 313
313 313 313 311 312 311 309 310 311 309 311 311 309 310 312 310 311 310 311 309 310 310 311 311 308 310 312 309 311 309 311 312 312 312 312 311 312 311 313 312 311 312 314 314 313
313 313 313 312 312 309 310 314 311 319 309 313 310 310 310 311 312 312 312 311 311 311 310 312 310 310 309 310 310 311 311 313 312 313 312 309 312 312 313 309 311 312 316 313 312
313 313 312 312 311 310 314 314 318 310 309 312 311 310 310 310 311 312 312 311 311 311 311 311 311 311 310 311 311 312 312 315 322 316 313 308 312 312 312 312 309 308 314 313 313
313 312 312 311 311 313 316 315 317 311 312 312 310 311 310 310 311 312 312 311 311 310 311 310 311 309 309 309 311 311 312 311 312 309 316 313 312 312 311 310 312 311 313 313 312
306 308 308 309 310 312 316 316 312 311 313 311 311 310 310 311 311 311 312 312 311 310 308 310 312 310 308 309 308 310 310 311 311 323 320 312 313 312 313 310 311 313 314 313 311
305 305 305 309 309 313 314 315 312 311 312 312 312 311 310 310 310 311 312 311 311 310 308 309 312 311 310 311 311 309 310 310 310 316 326 317 312 311 312 313 312 314 314 311 311
304 305 304 310 311 309 312 311 310 313 315 315 313 311 311 311 310 311 312 310 309 308 309 310 314 314 311 308 309 310 311 311 312 313 311 313 313 310 309 313 314 314 312 311 310
305 304 304 304 309 309 308 311 312 314 315 317 316 313 311 311 312 310 311 311 307 309 310 309 317 319 312 311 311 310 310 311 311 314 320 318 312 311 310 312 314 314 311 310 309
305 306 301 300 303 309 311 312 314 311 314 314 316 315 312 311 314 312 312 313 313 309 310 310 317 315 313 311 312 312 312 310 311 319 313 314 312 313 312 311 314 313 311 310 309
300 303 302 307 306 308 310 311 312 314 312 313 315 317 315 317 314 314 313 314 314 312 312 311 316 312 312 312 314 315 312 311 310 311 312 312 312 311 312 312 313 313 312 310 309
301 302 301 303 305 306 307 308 312 310 313 314 315 315 316 316 314 316 314 314 314 314 312 311 315 313 313 313 312 315 314 312 311 311 311 310 311 311 311 313 313 313 311 310 309
296 298 302 304 306 307 308 309 309 309 309 311 312 314 314 314 312 312 313 313 314 314 314 314 314 316 322 314 314 314 312 313 312 311 311 311 311 311 310 312 313 313 312 311 309
Wind_Speed
29 28 26 26 26 27 27 26 24 24 26 23 22 20 15 14 9 8 6 7 7 10 4 4 6 7 6 5 4 3 6 10 10 10 8 10 9 5 1 5 4 5 3 4 16
29 29 26 26 27 28 28 29 28 27 29 28 23 18 17 14 13 14 21 17 8 10 9 10 8 10 6 5 4 7 9 12 6 8 10 13 11 10 7 8 6 7 7 9 17
29 31 28 29 27 28 28 29 31 31 32 28 27 21 18 13 12 9 25 22 6 13 11 10 9 9 9 5 7 6 10 7 6 5 4 13 8 5 6 8 7 10 12 13 17
31 31 29 28 28 28 27 28 29 30 31 28 26 24 15 11 7 8 19 13 10 11 11 8 8 8 8 7 5 8 1 1 6 4 5 11 8 6 8 6 7 4 9 15 14
32 30 30 29 27 27 25 26 27 26 27 25 24 21 11 9 7 4 10 13 19 18 17 13 11 7 12 5 4 3 5 3 6 6 5 6 7 1 8 6 6 5 5 12 13
32 31 30 29 27 26 26 24 25 25 25 24 22 19 8 18 10 6 10 17 15 19 18 17 12 10 4 5 10 4 7 8 5 6 3 6 5 2 5 2 6 6 7 10 13
34 32 30 28 26 24 24 24 24 24 23 23 22 18 12 14 3 9 14 16 13 15 11 12 7 9 8 8 4 10 8 6 6 4 2 4 6 11 6 5 4 7 10 9 10
35 33 30 29 27 25 24 23 22 21 21 20 19 9 6 10 5 10 12 9 11 10 7 5 5 4 3 7 6 8 7 7 7 6 2 2 12 12 2 6 10 9 7 10 12
38 34 31 30 27 26 24 22 20 19 18 18 11 7 7 5 7 11 12 11 10 7 5 8 1 3 6 10 6 8 10 14 6 6 3 8 9 5 2 4 7 9 11 9 10
40 36 30 31 29 27 25 22 19 17 13 8 2 5 6 5 7 12 10 14 7 11 8 6 5 8 7 10 14 12 13 5 10 7 8 9 13 5 6 5 7 7 9 10 11
38 35 32 32 30 28 29 20 9 6 12 5 8 4 5 5 8 8 8 10 9 13 11 10 10 15 18 17 5 14 14 11 9 3 6 13 15 14 12 9 9 10 10 10 11
37 36 34 32 30 32 29 11 20 10 10 2 2 2 3 3 5 8 12 10 11 15 11 7 15 13 5 7 6 10 15 9 5 3 4 6 13 13 14 15 13 14 13 13 12
38 35 35 33 30 29 25 21 14 22 6 5 3 4 3 4 4 13 11 5 14 17 15 12 7 10 8 6 9 6 12 10 1 5 2 6 11 16 14 15 13 10 10 9 7
40 38 36 33 22 28 24 19 13 7 6 9 8 5 5 4 3 1 5 3 3 15 12 8 3 10 12 13 7 7 3 7 9 7 6 3 5 4 9 11 10 11 12 11 6
39 39 38 36 14 22 14 14 10 2 8 16 10 4 4 5 10 4 1 2 10 9 7 5 8 12 13 11 12 3 6 6 5 3 4 6 5 5 2 9 11 10 6 5 4
41 40 39 25 9 20 19 17 5 7 8 8 9 11 10 4 2 5 5 4 3 5 3 4 1 3 3 6 2 14 9 8 4 2 5 10 8 6 7 3 4 8 7 6 6
41 40 38 21 7 21 22 7 7 9 11 9 9 11 20 8 6 8 16 12 10 8 10 4 4 2 4 9 6 6 14 4 5 5 6 3 3 12 2 3 4 8 7 7 7
40 37 31 18 7 22 15 8 8 12 10 5 9 14 14 11 5 5 13 14 14 8 13 11 7 10 8 2 7 14 15 5 6 6 3 3 7 5 1 4 5 4 4 7 7
38 27 21 19 12 20 10 12 10 9 12 10 16 17 12 13 6 10 16 17 16 13 8 12 8 2 1 1 5 7 6 3 5 2 0 7 7 7 8 6 6 8 8 7 6
15 10 8 15 16 10 8 12 8 1 14 19 10 15 20 17 11 16 17 14 11 13 2 3 4 1 3 2 1 5 9 3 3 4 5 5 7 9 6 11 10 10 10 8 6
11 4 5 18 15 4 14 9 5 4 5 10 9 10 18 13 12 12 13 5 13 10 4 6 3 2 3 9 13 5 5 5 3 3 4 3 5 4 4 10 13 12 11 9 8
3 3 5 24 9 4 12 16 3 8 4 3 3 5 14 16 14 12 14 4 3 11 14 2 4 4 8 3 3 5 11 12 5 6 6 2 6 2 4 1 11 11 10 8 8
2 2 7 5 7 8 2 14 5 6 7 5 3 1 3 12 10 13 10 2 2 10 13 9 4 4 2 2 2 7 10 15 13 3 6 5 8 2 4 4 7 12 11 10 9
3 3 3 2 2 6 6 6 6 1 4 2 4 3 8 9 3 11 11 3 2 3 4 5 3 10 14 4 9 8 12 11 11 4 15 11 20 5 7 10 10 10 11 12 10
3 2 1 4 4 6 6 7 5 6 1 3 3 2 8 4 6 5 7 6 4 1 2 6 6 6 13 4 2 4 12 14 17 23 12 23 21 16 9 12 15 13 11 12 13
3 3 2 2 11 6 5 5 12 2 4 5 4 5 3 9 8 7 9 6 4 5 6 4 2 2 2 3 2 1 7 18 22 24 20 25 20 9 2 10 11 13 13 14 14
2 2 1 6 6 8 5 6 6 9 1 2 10 5 4 5 7 8 7 7 6 7 6 7 6 3 2 4 5 4 22 13 16 20 19 21 29 7 7 10 11 14 16 16 13
Wind_Direction
203 205 203 201 199 195 193 196 192 189 183 175 177 174 176 177 183 194 204 221 220 287 263 193 200 197 189 195 240 263 221 199 191 195 141 157 176 188 111 152 178 152 24 61 136
199 202 198 198 195 193 196 194 194 191 187 185 187 185 195 203 195 214 205 210 278 275 226 202 193 188 192 209 211 228 218 206 176 182 156 171 200 171 187 169 177 168 118 140 152
200 200 195 194 195 193 195 196 195 195 188 189 200 207 206 201 245 217 187 208 238 272 222 222 225 198 208 219 193 185 214 113 159 128 155 168 185 184 206 189 186 194 168 160 168
198 198 193 193 194 192 189 192 191 195 199 202 201 210 213 207 207 195 177 208 219 239 230 195 210 195 205 196 198 194 279 132 137 133 151 170 156 199 210 76 51 126 157 166 184
195 195 192 190 194 193 187 192 190 189 196 198 200 206 193 221 242 171 191 195 184 201 217 194 204 212 208 191 175 229 134 88 121 133 160 138 179 203 222 186 119 111 167 181 196
193 194 193 192 192 190 187 190 187 184 192 190 190 188 229 221 229 220 178 166 180 187 208 211 196 213 192 217 206 134 148 125 132 135 130 193 176 223 192 158 204 196 194 201 209
191 193 190 188 188 185 186 184 183 181 188 182 180 183 233 209 189 189 183 186 184 191 203 212 247 183 152 157 131 147 129 148 161 152 92 295 218 226 180 144 189 219 228 213 216
191 191 185 187 183 183 183 179 176 174 182 176 178 193 237 216 202 181 173 185 189 200 222 203 195 91 193 126 131 177 163 184 156 174 142 206 246 210 131 231 229 231 217 213 222
187 187 184 185 182 179 178 170 166 167 168 162 157 199 226 169 188 176 175 177 163 161 150 143 120 127 155 173 153 202 197 209 158 203 159 206 254 131 183 227 245 236 227 215 231
185 184 182 185 179 176 167 152 156 148 145 153 175 193 182 208 167 159 171 164 158 150 139 175 193 184 200 191 198 187 213 204 207 181 217 207 244 191 198 217 249 241 223 216 223
184 182 184 183 177 174 154 133 162 168 190 177 177 230 150 124 136 166 159 148 150 182 180 192 198 200 194 203 247 197 202 201 189 126 217 232 249 246 240 214 242 243 230 215 214
183 179 183 180 177 175 165 177 187 143 176 240 267 168 133 199 137 154 169 168 177 187 170 172 215 199 147 134 152 180 193 186 130 135 207 231 259 255 248 242 232 237 236 225 212
179 178 179 177 177 174 191 201 178 160 162 175 181 184 173 188 142 169 191 162 189 180 198 196 192 146 166 162 177 193 194 168 193 155 232 283 266 246 237 244 237 236 252 258 251
177 175 176 171 162 182 201 203 200 209 184 173 193 201 149 182 146 69 195 155 176 191 198 231 139 179 184 189 169 185 95 138 134 176 230 265 263 177 225 225 212 227 219 226 218
175 174 174 170 167 183 189 192 189 225 213 162 156 132 140 174 128 180 4 146 164 148 189 162 155 180 178 193 193 155 114 114 135 195 292 185 263 237 146 250 222 194 170 174 168
173 174 173 170 145 189 174 174 166 213 224 155 145 170 148 150 102 116 154 63 54 123 138 98 344 200 157 72 228 137 122 95 114 191 246 231 223 251 208 227 121 146 166 160 157
172 175 173 169 150 177 170 153 174 215 138 167 181 174 173 155 126 191 181 174 165 162 182 129 148 116 181 101 136 193 162 144 194 201 246 56 209 246 183 157 220 162 159 148 154
170 170 169 182 178 164 161 188 206 194 189 119 159 164 175 152 159 161 181 187 221 241 172 182 193 181 168 202 181 194 191 178 190 195 191 88 230 245 24 65 166 160 150 148 149
161 160 155 179 166 162 177 195 198 187 150 142 150 164 172 179 157 166 196 199 193 206 183 193 173 63 82 51 158 170 202 71 109 43 100 202 247 273 177 178 197 178 179 167 150
121 118 126 174 170 155 201 203 184 35 142 157 165 188 183 182 169 192 186 204 185 188 262 211 118 21 100 179 160 214 146 151 232 178 225 224 258 244 206 217 191 183 186 166 147
96 89 60 160 156 181 207 198 153 164 180 188 167 174 190 179 192 195 185 144 189 175 167 163 110 107 167 211 181 159 180 214 242 201 208 243 232 32 288 188 190 187 174 165 161
101 108 351 147 171 195 199 201 85 177 180 155 156 120 185 180 188 192 193 229 196 153 190 168 101 154 196 47 357 282 212 186 190 202 238 35 262 93 52 162 177 170 158 150 150
73 92 57 6 170 189 178 208 221 186 195 170 145 146 146 171 184 199 184 67 149 175 180 174 171 115 127 213 210 215 205 217 221 49 197 199 252 139 129 162 173 169 165 160 160
142 115 40 45 58 144 147 162 167 339 147 121 129 133 142 160 65 178 162 149 151 195 26 181 134 205 209 198 145 208 209 205 218 201 230 223 248 160 186 185 180 180 179 172 173
7 92 26 154 169 136 128 159 141 160 269 198 132 261 192 115 159 154 143 134 127 138 131 186 203 220 244 56 62 191 189 190 207 225 219 239 245 240 206 198 198 186 181 182 185
115 142 127 56 135 119 137 174 174 141 155 175 197 143 86 166 192 186 158 166 160 164 169 156 151 116 61 83 90 7 230 202 212 229 236 250 259 248 345 173 189 186 187 200 196
97 66 351 147 147 158 178 155 158 143 58 172 220 173 203 92 68 71 71 94 130 167 159 158 143 127 168 112 98 284 226 208 221 230 228 238 246 238 193 201 200 196 203 203 192